カタログに戻る

STARLINK-11414

運用中通信VLEO
NORAD 61948·PAYLOAD·🇺🇸 United States

打ち上げ Nov 14, 2024 から Vandenberg Space Force Base

Loading…

次のパス (今後24時間)

TLE

最新Source: CelesTrak SupGP

元期: Sep 15, 2026, 03:13 UTC

1 61948C 24209K   26258.13451389  .00038873  00000+0  32092-3 0  2587
2 61948  53.1572 157.1977 0001003  82.2381 315.3399 15.69637239    13

AllMySatでSTARLINK-11414をリアルタイム追跡

Download on the App Store